www.pogodaiklimat.ru

Погода и климат >> Архив погоды >> Китай >> Гуанси-Чжуанский автономный район >> Лючжоу


ПОГОДА в Лючжоу

  • Прогноз погоды в Лючжоу
  • Монитор погоды в Лючжоу

АРХИВ ПОГОДЫ в Лючжоу

Время (UTC), дата Ветер
(напр.,м/с)
 
Видим.   Явления Облачность Т
(С)
Тd
(С)
f
(%)
Тe
(С)
Тes
(С)
Комфортность P
(гПа)
Po
(гПа)
Тmin
(С)
Tmax
(С)
R
(мм)
R24
(мм)
S
(см)
21 16.09 С 3 8000 м н/о +24.5 +22.6 89 +32 +32 очень
душно
1009.5 998.3
00 17.09 СВ 4 9000 м ясно +25.4 +21.9 81 +33 +34 очень
душно
1011.2 1000.0 0.0
03 17.09 СВ 4 10 км ясно +29.1 +22.3 67 +38 +48 очень
душно
1012.4 1001.4
06 17.09 С 3 13 км 3/3 600 м
[]
+32.0 +22.1 56 +41 +51 опасность
перегрева
1009.4 998.5 +24.5
09 17.09 С 3 14 км 5/5 600 м
[]
+32.8 +23.2 57 +43 +45 опасность
перегрева
1008.2 997.3
12 17.09 СВ 3 12 км 4/4
[]
+29.6 +22.6 66 +39 +39 очень
душно
1009.9 998.9
18 17.09 В 4 13 км ?/? +26.3 +20.4 70 +33 +33 очень
душно
1011.4 1000.3 +32.8
21 17.09 СВ 5 8000 м н/о +25.3 +20.6 75 +31 +31 очень
душно
1011.7 1000.5
00 18.09 С 4 9000 м 8/8 1500 м
[]
+24.7 +20.6 78 +31 +31 очень
душно
1014.2 1003.0
03 18.09 СВ 5 12 км 3/3 600 м
[]
+28.3 +20.6 63 +35 +41 очень
душно
1014.8 1003.7
06 18.09 В 3 14 км 9/9 600 м
[]
+31.1 +21.3 56 +39 +40 очень
душно
1012.5 1001.5 +24.6
09 18.09 СВ 5 15 км 1/1
[]
+30.6 +20.5 55 +38 +39 очень
душно
1011.4 1000.4
12 18.09 В 6 17 км ясно +27.5 +19.8 63 +33 +33 очень
душно
1013.6 1002.5
18 18.09 С 4 13 км ?/? +22.3 +17.7 75 +27 +27 душно 1014.7 1003.4 +31.9
21 18.09 С 4 7000 м дымка н/о +20.5 +18.8 90 +25 +25 комфорт 1015.0 1003.6
00 19.09 С 3 10 км 3/3
[]
+21.2 +18.8 86 +26 +27 душно 1016.8 1005.4
03 19.09 С 3 15 км 8/8 600 м
[]
+26.4 +19.3 65 +32 +34 очень
душно
1016.6 1005.4
06 19.09 С 1 18 км ясно +29.3 +19.6 56 +35 +54 опасность
солнечного
удара
1013.4 1002.4 +20.0
09 19.09 С 3 18 км 3/3 600 м
[]
+29.6 +19.9 56 +36 +38 очень
душно
1012.1 1001.1
12 19.09 С 3 17 км 3/3 600 м
[]
+26.0 +19.4 67 +31 +31 очень
душно
1012.9 1001.7
18 19.09 С 6 15 км ?/? +22.2 +18.2 78 +27 +27 душно 1013.4 978.5 +30.5
21 19.09 С 5 14 км н/о +21.5 +18.1 81 +26 +26 душно 1012.8 1001.5
00 20.09 С 5 12 км ясно +22.5 +18.5 78 +28 +29 душно 1014.0 1002.7
03 20.09 С 3 20 км ясно +27.6 +18.9 59 +33 +45 очень
душно
1014.1 1003.0
06 20.09 С 3 22 км 3/3 600 м
[]
+30.0 +18.4 50 +35 +44 очень
душно
1011.9 1000.9 +20.7
09 20.09 С 8 28 км 6/6 600 м
[]
+29.7 +17.2 47 +34 +34 очень
душно
1010.6 999.6
12 20.09 С 6 23 км 4/4 1500 м
[]
+25.7 +17.9 62 +30 +30 душно 1011.7 1000.5
21 20.09 С 8 17 км н/о +22.0 +16.5 71 +26 +26 душно 1012.5 1001.2
00 21.09 С 6 18 км ясно +22.6 +15.9 66 +27 +28 душно 1014.5 1003.2
03 21.09 С 4 30 км 1/1 600 м
[]
+26.9 +14.6 47 +29 +38 жарко 1014.4 1003.3
06 21.09 С 8 25 км ясно +29.0 +15.9 45 +32 +35 душно 1012.1 1001.1 +21.5
09 21.09 С 4 30 км 9/9 600 м
[]
+27.4 +15.7 49 +30 +31 жарко 1011.7 1000.6
12 21.09 С 8 30 км 9/9 600 м
[]
+25.7 +14.2 49 +28 +28 жарко 1013.2 1002.0
18 21.09 С 5 30 км ?/? +21.8 +14.0 61 +25 +25 комфорт 1015.3 1004.0 +29.4
21 21.09 С 5 30 км н/о +20.6 +13.8 65 +23 +23 комфорт 1015.8 1004.4
00 22.09 С 6 25 км ясно +21.7 +13.9 61 +25 +25 комфорт 1017.8 1006.4
03 22.09 С 7 27 км 3/3 600 м
[]
+26.3 +13.4 45 +28 +31 жарко 1018.1 1006.9
06 22.09 С 6 28 км 8/8 600 м
[]
+28.4 +13.5 40 +30 +31 жарко 1015.7 1004.6 +19.9
09 22.09 С 5 27 км 5/5 600 м
[]
+28.0 +13.5 41 +30 +31 жарко 1015.0 1003.9
12 22.09 С 5 28 км 1/1
[]
+24.8 +12.1 45 +26 +26 жарко 1016.2 1005.0
18 22.09 С 4 30 км ?/? +22.6 +10.7 47 +25 +25 комфорт 1017.6 1006.3 +29.3
21 22.09 С 4 25 км н/о +20.3 +11.0 55 +22 +22 комфорт 1018.2 1006.8
00 23.09 С 4 22 км ясно +20.8 +11.7 56 +23 +24 комфорт 1020.5 1009.1
03 23.09 С 5 30 км 1/1
[]
+26.1 +11.5 40 +27 +34 жарко 1020.8 1009.6
06 23.09 СВ 2 30 км 5/5 600 м
[]
+28.9 +9.6 30 +29 +37 жарко 1018.0 1006.9 +19.4
09 23.09 З 1 30 км 1/1 600 м
[]
+29.6 +11.2 32 +30 +33 жарко 1017.0 1005.9
12 23.09 С 3 30 км ясно +26.3 +11.3 39 +27 +27 жарко 1018.0 1006.8

 

Местоположение метеостанции Лючжоу (Гуанси-Чжуанский автономный район, Китай): широта 24.35 долгота 109.40 высота над уровнем моря 97 м.

В архиве по умолчанию представлена погода в Лючжоу за последнюю неделю. Архивные данные за месяц целиком и за предыдущие месяцы, начиная с января 2011 года, Вы можете получить, выбрав интересующий диапазон дат из раскрывающегося списка и нажав кнопку "Ввод!".


*Определитесь, кто Вы:
робот инопланетянин человек

Внимание! Время в таблицах - всемирное. Для получения местного времени необходимо прибавить поправку, которая равна 8 ч.

Смотрите также архив погоды в соседних городах и на ближайших метеорологических станциях:

Погода в Мэншане (Гуанси-Чжуанский автономный район, Китай) (114 км)
Погода в Гуйпине (Гуанси-Чжуанский автономный район, Китай) (126 км)
Погода в Гуйлине (Гуанси-Чжуанский автономный район, Китай) (142 км)
Погода в Хэчи (Гуанси-Чжуанский автономный район, Китай) (142 км)
Погода в Рунцзяне (Гуйчжоу, Китай) (200 км)
Погода в Тундао (Хунань, Китай) (206 км)
Погода в Учжоу (Гуанси-Чжуанский автономный район, Китай) (216 км)
Погода в Наньнине (Гуанси-Чжуанский автономный район, Китай) (227 км)
Погода в Душане (Гуйчжоу, Китай) (249 км)
Погода в Синьи (Цзянсу, Китай) (272 км)

Пояснения к столбцам:

Ветер - указаны скорость ветра в м/с - средняя за 10 мин, порывы в срок и между сроками (в фигурных скобках) и направление, откуда дует ветер: С - северный, СВ - северо-восточный, В - восточный, ЮВ - юго-восточный, Ю - южный, ЮЗ - юго-западный, З - западный, СЗ - северо-западный.
Видимость - горизонтальная дальность видимости в метрах или километрах. При видимости от 1 до 10 км при отсутствии осадков обычно наблюдается дымка, при ухудшении видимости до 1 км и менее - туман. В сухую погоду видимость может ухудшаться дымом, пылью или мглою.
Явления - указаны атмосферные явления, наблюдавшиеся в срок или в последний час перед сроком; фигурными скобками обозначены явления, наблюдавшиеся между сроками (за 1-3 часа до срока); квадратными скобками обозначены град или гололедные отложения с указанием их диаметра в мм.
Облачность - указаны через наклонную черту общая и нижняя облачность в баллах и высота нижней границы облаков в метрах; квадратными скобками обозначены формы облаков: Ci - перистые, Cs - перисто-слоистые, Cc - перисто-кучевые, Ac - высококучевые, As - высокослоистые, Sc - слоисто-кучевые, Ns - слоисто-дождевые, Cu - кучевые, Cb - кучево-дождевые. Подробнее классификацию облаков см. в Атласе облаков (PDF).
T - Температура воздуха - температура, измеренная на высоте 2 м над землей.
Td - Температура точки росы - температура, при понижении до которой содержащийся в воздухе водяной пар достигнет насыщения.
f - Относительная влажность воздуха - влажноcть воздуха, измеренная на высоте 2 м над землей.
Te - Эффективная температура - температура, которую ощущает одетый по сезону человек в тени. Характеристика душности погоды. При расчете учитывается влияние влажности воздуха и скорости ветра на теплоощущения человека.
Tes - Эффективная температура на солнце - температура, которую ощущает человек, с поправкой на солнечный нагрев. Характеристика знойности погоды. Зависит от высоты солнца над горизонтом, облачности и скорости ветра. Ночью, в пасмурную погоду, а также при ветре 12 м/с и более поправка равна нулю.
P - Атмосферное давление - приведенное к уровню моря атмосферное давление.
Po - Атмосферное давление - измеренное на уровне метеостанции атмосферное давление.
Tmin - Минимальная температура - минимум температуры воздуха на высоте 2 м над землей.
Tmax - Максимальная температура - максимум температуры воздуха на высоте 2 м над землей.
R - Количество осадков - Количество выпавших осадков за период времени, мм. При наведении курсора мыши на число - период времени, за который выпало указанное количество осадков.
R24 - Количество осадков - Количество выпавших осадков за 24 часа, мм.
S - Снежный покров - Высота снежного покрова, см. При наведении курсора мыши на число - состояние снежного покрова и степень покрытия местности в баллах.